Regional Weather Roundup
Issued by NWS

Home | Current Version | Previous Version | Graphics & Text | Print | Product List | Glossary On
Versions: 1 2 3 4 5 6 7 8 9 10 11 12 13 14 15 16 17 18 19 20 21 22 23 24 25 26 27 28
000
ASUS45 KBOU 261310
RWRCO

WEATHER ROUNDUP FOR COLORADO
NATIONAL WEATHER SERVICE DENVER/BOULDER CO
700 AM MDT SAT MAY 26 2018

NOTE: "FAIR" INDICATES FEW OR NO CLOUDS BELOW 12000 FEET WITH NO
SIGNIFICANT WEATHER AND/OR OBSTRUCTIONS TO VISIBILITY.

COZ001>005-013-030-031-261400-
...NORTHWEST COLORADO...

CITY           SKY/WX    TMP DP  RH WIND       PRES   REMARKS
CRAIG          FAIR      41  35  79 W3        30.05R
HAYDEN         FAIR      48  31  51 E15       30.08R
MEEKER         FAIR      44  28  53 CALM      30.07R
RANGELY        FAIR      43  29  58 CALM      29.97R
RABBIT EARS PA FAIR      48  14  25 S5        30.35R
STEAMBOAT SPGS FAIR      40  33  75 CALM      30.11R
WALDEN         FAIR      39  28  65 E3        30.20S
$$

COZ006>008-011-261400-
...WEST CENTRAL VALLEYS...

CITY           SKY/WX    TMP DP  RH WIND       PRES   REMARKS
GRAND JUNCTION FAIR      63  18  17 SE13      29.96R
MONTROSE       FAIR      58  17  20 E8        30.08R
EAGLE          FAIR      42  21  43 E5        30.17R
RIFLE          FAIR      49  27  42 W3        30.04R
DELTA          FAIR      57  13  17 NE5       30.04R
NUCLA          FAIR      59   9  13 E7        30.11S
$$

COZ017>023-064>068-261400-
...SOUTHWEST COLORADO...

CITY           SKY/WX    TMP DP  RH WIND       PRES   REMARKS
DURANGO        FAIR      41  18  39 NE6       30.16R
CORTEZ         FAIR      50  20  30 CALM      30.09S
PAGOSA SPRINGS FAIR      43  12  28 CALM      30.23R
TELLURIDE      FAIR      47  13  25 CALM      30.28R
WOLF CREEK PAS FAIR      41   5  22 S9        30.50R
$$

COZ009-010-012-014-032>034-037-058>063-261400-
...CENTRAL COLORADO...

CITY           SKY/WX    TMP DP  RH WIND       PRES   REMARKS
ASPEN          FAIR      46  25  43 S5        30.18R
BUENA VISTA    FAIR      46  23  40 N3        30.23R
COPPER MTN     FAIR      52   5  15 S6        30.46R
BERTHOUD PASS  FAIR      43  32  65 W16       30.48R
COTTONWOOD PAS FAIR      59  16  18 E3        30.33R
GUNNISON       FAIR      36  19  50 CALM      30.26R
GRANBY         FAIR      40  32  73 CALM      30.24S
KREMMLING      FAIR      41  32  70 CALM      30.22R
LEADVILLE      FAIR      38  20  48 NE5       30.32R
MONARCH PASS   FAIR      45   0  15 MISG      30.56R
SALIDA         FAIR      51  21  31 NW10G17   30.27R
SUNLIGHT       FAIR      43   9  24 SW13G21   30.38R
WILKERSON PASS FAIR      46  19  34 SW13      30.43R
$$

COZ069>075-261400-
...SAN LUIS VALLEY/SANGRE DE CRISTO MOUNTAINS...

CITY           SKY/WX    TMP DP  RH WIND       PRES   REMARKS
ALAMOSA        FAIR      44  24  45 E3        30.21R
DEL NORTE      FAIR      47  11  23 NW8       30.25R
LA VETA PASS   FAIR      52  10  19 MISG      30.45R
SAGUACHE       NOT AVBL
$$

COZ035-036-038>040-261400-
...NORTHERN COLORADO FRONT RANGE...

CITY           SKY/WX    TMP DP  RH WIND       PRES   REMARKS
DENVER INTL AP FAIR      61  47  59 SW8       29.96S
AURORA         SUNNY     62  47  58 SW9       29.98S
FRONT RANGE AP SUNNY     64  48  55 S6        29.98R
ERIE MUNI ARPT FAIR      53  46  76 CALM      30.01S
BOULDER MUN AP FAIR      59  43  55 CALM      29.96S HAZE
CENTENNIAL     FAIR      61  48  62 S5        30.00R
BROOMFIELD     SUNNY     63  37  39 CALM      29.99R
FORT COLLINS   FAIR      55  47  74 NW3       29.96R
LONGMONT       FAIR      57  47  68 CALM      29.97S
$$

COZ041-046-047-076>085-087-088-261400-
...PIKES PEAK/PALMER DIVIDE AND SOUTHERN FOOTHILLS...

CITY           SKY/WX    TMP DP  RH WIND       PRES   REMARKS
COLO. SPRINGS  FAIR      59  47  64 NE6       30.05S
A. F. ACADEMY  FAIR      50  43  77 N7        30.07R
SCHRIEVER AFB  NOT AVBL
CHEYENNE MTN   FAIR      63  40  42 SE3       30.04R
ELLICOTT         N/A    N/A N/A N/A S5        30.03R
FALCON         FAIR      60  46  60 CALM      30.09S
FORT CARSON    FAIR      58  44  59 N7        30.02R
LIMON          FAIR      55  51  86 CALM      30.00S
MONUMENT HILL  FAIR      59  41  51 S7        30.09S
CANON CITY     SUNNY     64  39  39 NW8G18    30.00R
WALSENBURG     FAIR      72  14  11 W15       30.05R
TRINIDAD       FAIR      56  32  40 MISG      30.03R
$$

COZ042>045-048>051-090-091-261400-
...NORTHEAST COLORADO...

CITY           SKY/WX    TMP DP  RH WIND       PRES   REMARKS
GREELEY ARPT   FAIR      55  48  77 NW6       29.95R
AKRON          FAIR      68  57  68 S14       29.94S
BURLINGTON     FAIR      66  63  90 S10       29.94F
WRAY           FAIR      68  61  77 SW6       29.92R
YUMA           FAIR      63  59  88 SW9       29.93S
STERLING       FAIR      57  54  88 CALM      29.92S
HOLYOKE        FAIR      63  54  72 CALM      29.92S
FORT MORGAN    FAIR      60  50  69 E5        29.94S
$$

COZ086-089-092>099-261400-
...SOUTHEAST COLORADO...

CITY           SKY/WX    TMP DP  RH WIND       PRES   REMARKS
PUEBLO         FAIR      62  46  55 NW5       29.96R
LA JUNTA       FAIR      66  53  63 SW7       29.93R
LAMAR          FAIR      65  61  87 MISG      29.90S
SPRINGFIELD      N/A     58  58 100 CALM      29.95S
$$




USA.gov is the U.S. government's official web portal to all federal, state and local government web resources and services.